Regional Weather Roundup
Issued by NWS Upton, NY

Home | Current Version | Previous Version | Text Only | Print | Product List | Glossary On
Versions: 1 2 3 4 5 6 7 8 9 10 11 12 13 14 15 16 17 18 19 20 21 22 23 24 25 26 27 28 29 30 31 32 33 34 35 36 37 38 39 40 41 42 43 44 45 46 47 48 49 50
000
ASUS41 KOKX 150308
RWROKX

REGIONAL WEATHER ROUNDUP
NATIONAL WEATHER SERVICE NEW YORK NY
1000 PM EST THU DEC 14 2017

NOTE: "FAIR" INDICATES FEW OR NO CLOUDS BELOW 12,000 FEET WITH NO
SIGNIFICANT WEATHER AND/OR OBSTRUCTIONS TO VISIBILITY.

NYZ071-072-176-178-NJZ106-104-150400-
NEW YORK CITY METRO AREA

CITY           SKY/WX    TMP DP  RH WIND       PRES   REMARKS
Central Park   PTCLDY    24   7  48 NW6       30.10R WCI  17
Bronx Bot Gard   N/A     25   5  42 W10       30.11R WCI  15
Bronx Lehman C NOT AVBL
LaGuardia APRT PTCLDY    26   8  46 NW14      30.09R WCI  14
Queens College NOT AVBL
Kennedy INTL   MOCLDY    24   7  48 NW12      30.10R WCI  13
Breezy Point     N/A    N/A N/A N/A NW14G22     N/A
Brooklyn Coll  NOT AVBL
Staten Island  NOT AVBL
Newark/Liberty MOCLDY    25   5  42 NW6       30.10R WCI  18
Teterboro      CLEAR     23   7  50 NW5       30.09R WCI  17
$$

NYZ177-179-078>081-150400-
LONG ISLAND NEW YORK

CITY           SKY/WX    TMP DP  RH WIND       PRES   REMARKS
Jones Beach      N/A    N/A N/A N/A NW12        N/A
Wantagh        NOT AVBL
Matinecock PT    N/A    N/A N/A N/A W16G24      N/A
Farmingdale    CLEAR     23   4  44 NW9       30.08R WCI  13
MacArthur/ISP  PTCLDY    23   5  46 NW16      30.06R WCI  10
Shirley        CLEAR     23   7  50 NW12      30.07R WCI  12
Mt Sinai Harb    N/A    N/A N/A N/A NW12G18     N/A
Westhampton    CLEAR     19   7  59 W6        30.06R WCI  11
East Hampton   FAIR      25  10  52 NW5       30.04R WCI  19
Southold       NOT AVBL
Montauk          N/A     26  10  50 NW9G20    30.05R WCI  17
$$

NYZ052-065-067-150400-
HUDSON VALLEY

CITY           SKY/WX    TMP DP  RH WIND       PRES   REMARKS
White Plains   CLEAR     20   5  52 W10       30.05R WCI   9
Larchmont Harb   N/A    N/A N/A N/A W10         N/A
Croton On Huds   N/A    N/A N/A N/A NW12        N/A
Somers         NOT AVBL
Brewster       NOT AVBL
Newburgh       CLEAR     12   5  73 W6        30.05R WCI   3
Montgomery     CLOUDY    13   3  64 VRB5      30.05R WCI   5
Otisville      NOT AVBL
Warwick        NOT AVBL
Suffern        NOT AVBL
Poughkeepsie   CLEAR     17   0  47 W3        30.06R
Albany         MOCLDY    16   4  59 SW5       30.04R WCI   9
$$

NJZ001-105-106-008-010-013-015-019>022-104-150400-
NEW JERSEY

CITY           SKY/WX    TMP DP  RH WIND       PRES   REMARKS
Newark/Liberty MOCLDY    25   5  42 NW6       30.10R WCI  18
Teterboro      CLEAR     23   7  50 NW5       30.09R WCI  17
Caldwell       CLEAR     21   4  47 NW6       30.10R WCI  13
Somerville     PTCLDY    16  10  77 CALM      30.08R
Linden         FAIR      24   5  44 CALM      30.10R
Perth Amboy      N/A    N/A N/A N/A N9          N/A
Sussex         CLOUDY    13   6  74 CALM      30.06R
Andover        NOT AVBL
Trenton        PTCLDY    22   9  57 CALM      30.09R
Millville      CLOUDY    20  16  84 CALM      30.11R
Atlantic City  PTCLDY    25  16  68 CALM      30.10R
Wrightstown    PTCLDY    23  11  62 NW5       30.06R WCI  16
Toms River     CLOUDY    18  14  84 CALM      30.10R
Belmar         PTCLDY    23  10  57 NW3       30.09R
$$

PAZ047>061-062-071-150400-
EASTERN PENNSYLVANIA

CITY           SKY/WX    TMP DP  RH WIND       PRES   REMARKS
Philadelphia   CLOUDY    29   9  43 NW6       30.11R WCI  23
Allentown      CLOUDY    22   7  52 W6        30.09R WCI  14
Scranton       CLEAR     15   3  59 SW5       30.04R WCI   8
$$

CTZ002-004>006-009-010-012-RIZ004-006-007-MAZ004-011-015-150400-
SOUTHERN NEW ENGLAND
 IN CT

CITY           SKY/WX    TMP DP  RH WIND       PRES   REMARKS
Bradley INTL   PTCLDY    17   3  54 VRB5      30.02R WCI  10
Hartford       CLEAR     20   4  50 NW3       30.04R
Danbury        CLOUDY    19   1  45 W6        30.05R WCI  11
Wtrbury/Oxford CLOUDY    14   3  61 NW3       30.01R
Norwalk Harbor   N/A    N/A N/A N/A W14         N/A
Bridgeport     PTCLDY    22   4  46 W8        30.07R WCI  12
Meriden        CLOUDY    11   3  70 CALM      30.05R
New Haven      PTCLDY    22   4  46 NW8       30.06R WCI  12
Chester        FAIR      18   1  49 NW5       30.02R WCI  11
Groton         PTCLDY    20   4  50 NW9       30.05R WCI   9
Wilimantic     CLEAR     18   3  52 W6        30.02R WCI  10

 IN RI

CITY           SKY/WX    TMP DP  RH WIND       PRES   REMARKS
Providence     CLEAR     19   5  54 W12       30.00R WCI   7
Block Island   CLEAR     22   9  57 NW14G21   30.03R WCI   9
Westerly       PTCLDY    20   3  48 W5        30.04R WCI  13
 IN MA

CITY           SKY/WX    TMP DP  RH WIND       PRES   REMARKS
Boston         CLEAR     20   3  48 W15       29.96R WCI   6
Worcester      CLEAR     12   1  61 W14       29.89S WCI  -3
Westfield      CLEAR     17   4  56 NW14      30.00R WCI   3
Provincetown   CLEAR     24  10  55 NW22G30   29.95R WCI   9
Nantucket      CLEAR     24  11  57 W14G23    29.97R WCI  12
$$

ANZ330-335-338-340-345-350-353-355-150400-
COASTAL MARINE OBSERVATIONS


STATION/POSITION TIME  SKY/WX   TEMP    WIND        PRES    VSBY  WAVE
                                AIR SEA DIR/SP/G                  HT/PER
                 (UTC)          (F)     (DEG/KT/KT) (MB)    (MI)  (FT/S)
NY HARB ENTRANCE 0150            31 51  300/ 19/ 25 1017.4          3/ 4
20 S FIRE ISLAND 0150            31 52  320/ 23/ 27 1017.0          5/ 5
GREAT SOUTH BAY  0230            26 45  300/ 12/ 21   N/A
HUDSON CANYON    0150            36 56  310/ 19/ 27 1016.2          7/ 6
KINGS POINT      0230            26 42  360/ 12/ 14 1019.8
EXECUTION ROCKS  0230            26     320/ 12/ 17   N/A
WESTERN LI SOUND NOT AVBL
CENTRAL LI SOUND NOT AVBL
ROBBINS REEF     0230            26     320/ 13/ 16 1019.5
$$


>>>>>>>>>>>>>>>>>>>>>>>>>>>> KEY <<<<<<<<<<<<<<<<<<<<<<<<<<<
>                                                          <
>     SKY/WX - Sky Condition/Present Weather               <
>     TMP    - Temperature in Fahrenheit                   <
>     DP     - Dew Point in Fahrenheit                     <
>     RH     - Relative Humidity in Percent                <
>     WIND   - Direction (from) and Speed in MPH           <
>     PRES   - Mean Sea Level Pressure (inches of Hg)      <
>     WCI    - Wind Chill Index                            <
>     VSB    - VISIBILITY IN MILES                         <
>     HX     - HEAT INDEX                                  <
>     TC     - TEMPERATURE IN CELSIUS                      <
>     VRB    - VARIABLE WIND DIRECTION                     <
>                                                          <
>>>>>>>>>>>>>>>>>>>>>>>>>>>> KEY <<<<<<<<<<<<<<<<<<<<<<<<<<<



USA.gov is the U.S. government's official web portal to all federal, state and local government web resources and services.